COSMOS 1680

导读

COSMOS 1680是苏联解体后独立国家联合体(CIS)继承航天体系后,于1985年9月4日08:00发射的宇宙号系列卫星。作为全球规模最大卫星家族的一员,宇宙号系列多为军用任务,承担航天技术试验、军事侦察或空间科学探测等任务,该卫星延续了苏联宇宙系列混编多任务的特点,是冷战时期CIS航天能力的重要见证,至今已在轨运行超四十年,为空间活动积累了长期数据。

基本信息
目录编号:
16011
目录名称:
COSMOS 1680
国际标识:
1985-079A
轨道中心:
EARTH
卫星名称:
COSMOS 1680
卫星全名:
--
卫星状态:
在轨 (已飞行14896 天)
发射日期:
1985-09-04 UTC
国别 :
俄罗斯(独联体) (CIS)
星等 :
--
轨道信息
数据来源 国际轨道数据 AOE轨道数据
星历时间 2026-06-17T22:42:31+0800
7小时前
查看轨道信息
2026-06-17T07:00:00+0800
23小时前
查看轨道信息
半长轴 7155.993km 7155.999km
偏心率 0.0014323 0.0014415
轨道倾角 74.054° 74.053°
近地点辐角 140.448° 142.419°
升交点赤经 324.030° 325.226°
平近点角 219.772° 79.848°
近地点 767.606km 767.546km
远地点 788.106km 788.178km
周期 100.407分钟 100.407分钟
每日圈数 14.341611 14.341592
详细信息
使用方式:
暂无
2D轨道图
3D轨道图
轨道高度分析图
轨道倾角分析图
轨道综合分析图
查看轨道综合分析图